#timestamp,LO_Frequency,Hit,Temp,Hum 
1480255215.9,286046991.7,N,0.0,0.0
1480255235.7,286046993.0,N,0.0,0.0
1480255255.6,286046992.1,N,0.0,0.0
1480255275.4,286046992.3,N,0.0,0.0
1480255295.2,286046994.8,N,0.0,0.0
1480255315.1,286046994.8,N,0.0,0.0
1480255316.0,286046994.8,N,0.0,0.0
1480255335.8,286046994.4,N,0.0,0.0
1480255355.7,286046994.4,N,0.0,0.0
1480255375.5,286046992.3,N,0.0,0.0
1480255395.3,286046992.4,N,0.0,0.0
1480255415.2,286046992.9,N,0.0,0.0
1480255435.0,286046990.5,N,0.0,0.0
1480255435.9,286046990.5,N,0.0,0.0
1480255455.7,286046990.5,N,0.0,0.0
1480255475.6,286046992.9,N,0.0,0.0
1480255495.4,286046991.8,N,0.0,0.0
1480255515.3,286046992.2,N,0.0,0.0
1480255535.1,286046991.9,N,0.0,0.0
1480255536.0,286046991.9,N,0.0,0.0
1480255555.8,286046994.5,N,0.0,0.0
1480255575.7,286046993.6,N,0.0,0.0
1480255595.5,286046994.8,N,0.0,0.0
1480255615.4,286046993.4,N,0.0,0.0
1480255635.2,286046995.6,N,0.0,0.0
1480255655.0,286046996.0,N,0.0,0.0
1480255655.9,286046996.0,N,0.0,0.0
1480255675.8,286046995.8,N,0.0,0.0
1480255695.6,286046995.4,N,0.0,0.0
1480255715.4,286046997.6,N,0.0,0.0
1480255735.3,286046997.3,N,0.0,0.0
1480255755.1,286046997.8,N,0.0,0.0
1480255775.9,286046996.8,N,0.0,0.0
1480255795.7,286046997.5,N,0.0,0.0
1480255815.5,286046997.9,N,0.0,0.0
1480255835.4,286046996.8,N,0.0,0.0
1480255855.2,286046997.8,N,0.0,0.0
1480255875.0,286046997.6,N,0.0,0.0
1480255875.9,286046997.6,N,0.0,0.0
1480255895.8,286046996.8,N,0.0,0.0
1480255915.6,286046997.0,N,0.0,0.0
1480255935.5,286046999.4,N,0.0,0.0
1480255955.3,286046998.3,N,0.0,0.0
1480255975.1,286047000.9,N,0.0,0.0
1480255995.9,286047000.2,N,0.0,0.0
1480256015.7,286047000.2,N,0.0,0.0
1480256035.6,286046999.9,N,0.0,0.0
1480256055.4,286047002.8,N,0.0,0.0
1480256075.2,286047002.1,N,0.0,0.0
1480256095.1,286047004.4,N,0.0,0.0
1480256096.0,286047004.4,N,0.0,0.0
1480256115.8,286047003.0,N,0.0,0.0
1480256135.6,286047001.6,N,0.0,0.0
1480256155.5,286047001.7,N,0.0,0.0
1480256175.3,286047002.3,N,0.0,0.0
1480256195.2,286047000.2,N,0.0,0.0
1480256215.9,286047002.7,N,0.0,0.0
1480256235.7,286047001.4,N,0.0,0.0
1480256255.6,286047003.3,N,0.0,0.0
1480256275.4,286047005.7,N,0.0,0.0
1480256295.2,286047006.0,N,0.0,0.0
1480256315.1,286047002.9,N,0.0,0.0
1480256316.0,286047002.9,N,0.0,0.0
1480256335.8,286047003.0,N,0.0,0.0
1480256355.7,286047002.9,N,0.0,0.0
1480256375.5,286047004.1,N,0.0,0.0
1480256395.3,286047006.0,N,0.0,0.0
1480256415.2,286047005.3,N,0.0,0.0
1480256435.0,286047005.9,N,0.0,0.0
1480256435.9,286047005.9,N,0.0,0.0
1480256455.8,286047004.1,N,0.0,0.0
1480256475.6,286047003.0,N,0.0,0.0
1480256495.4,286047003.3,N,0.0,0.0
1480256515.3,286047003.5,N,0.0,0.0
1480256535.1,286047005.8,N,0.0,0.0
1480256555.9,286047005.5,N,0.0,0.0
1480256575.7,286047004.4,N,0.0,0.0
1480256595.5,286047004.3,N,0.0,0.0
1480256615.4,286047003.5,N,0.0,0.0
1480256635.2,286047003.9,N,0.0,0.0
1480256655.0,286047001.6,N,0.0,0.0
1480256655.9,286047001.6,N,0.0,0.0
1480256675.8,286047002.0,N,0.0,0.0
1480256695.6,286047004.4,N,0.0,0.0
1480256715.5,286047004.0,N,0.0,0.0
1480256735.3,286047001.9,N,0.0,0.0
1480256755.1,286047002.3,N,0.0,0.0
1480256775.9,286047003.9,N,0.0,0.0
1480256795.7,286047004.0,N,0.0,0.0
1480256815.6,286047001.5,N,0.0,0.0
1480256835.4,286047004.2,N,0.0,0.0
1480256855.2,286047002.1,N,0.0,0.0
1480256875.1,286047000.5,N,0.0,0.0
1480256876.0,286047000.5,N,0.0,0.0
1480256895.8,286047001.2,N,0.0,0.0
1480256915.6,286047001.1,N,0.0,0.0
1480256935.5,286046998.2,N,0.0,0.0
1480256955.3,286046999.0,N,0.0,0.0
1480256975.2,286046999.6,N,0.0,0.0
1480256995.9,286046996.9,N,0.0,0.0
1480257015.7,286046998.5,N,0.0,0.0
1480257035.6,286046998.2,N,0.0,0.0
1480257055.4,286047001.2,N,0.0,0.0
1480257075.2,286046997.2,N,0.0,0.0
1480257095.1,286046996.4,N,0.0,0.0
1480257096.0,286046996.4,N,0.0,0.0
1480257115.8,286046992.0,N,0.0,0.0
1480257135.7,286046990.1,N,0.0,0.0
1480257155.5,286046991.4,N,0.0,0.0
1480257175.3,286046991.5,N,0.0,0.0
1480257195.2,286046989.0,N,0.0,0.0
1480257215.0,286046989.4,N,0.0,0.0
1480257215.9,286046989.4,N,0.0,0.0
1480257235.8,286046989.5,N,0.0,0.0
1480257255.6,286046986.9,N,0.0,0.0
1480257275.4,286046987.7,N,0.0,0.0
1480257295.3,286046988.4,N,0.0,0.0
1480257315.1,286046986.2,N,0.0,0.0
1480257335.8,286046986.8,N,0.0,0.0
1480257355.7,286046983.8,N,0.0,0.0
1480257375.5,286046984.4,N,0.0,0.0
1480257395.4,286046984.8,N,0.0,0.0
1480257415.2,286046982.5,N,0.0,0.0
1480257435.0,286046982.3,N,0.0,0.0
1480257435.9,286046982.3,N,0.0,0.0
1480257455.8,286046982.8,N,0.0,0.0
1480257475.6,286046983.0,N,0.0,0.0
1480257495.5,286046980.5,N,0.0,0.0
1480257515.3,286046981.4,N,0.0,0.0
1480257535.1,286046981.9,N,0.0,0.0
1480257555.9,286046981.6,N,0.0,0.0
1480257575.7,286046979.5,N,0.0,0.0
1480257595.5,286046979.5,N,0.0,0.0
1480257615.4,286046979.8,N,0.0,0.0
1480257635.2,286046980.0,N,0.0,0.0
1480257655.1,286046977.4,N,0.0,0.0
1480257656.0,286046977.4,N,0.0,0.0
1480257675.8,286046978.5,N,0.0,0.0
1480257695.6,286046978.6,N,0.0,0.0
1480257715.5,286046978.7,N,0.0,0.0
1480257735.3,286046976.3,N,0.0,0.0
1480257755.1,286046976.4,N,0.0,0.0
1480257775.9,286046976.9,N,0.0,0.0
1480257795.7,286046976.8,N,0.0,0.0
1480257815.6,286046977.2,N,0.0,0.0
1480257835.4,286046974.1,N,0.0,0.0
1480257855.2,286046977.1,N,0.0,0.0
1480257875.1,286046977.0,N,0.0,0.0
1480257876.0,286046977.0,N,0.0,0.0
1480257895.8,286046977.2,N,0.0,0.0
1480257915.7,286046974.7,N,0.0,0.0
1480257935.5,286046975.5,N,0.0,0.0
1480257955.3,286046972.5,N,0.0,0.0
1480257975.2,286046972.9,N,0.0,0.0
1480257995.0,286046973.2,N,0.0,0.0
1480257995.9,286046973.2,N,0.0,0.0
1480258015.7,286046973.4,N,0.0,0.0
1480258035.6,286046973.2,N,0.0,0.0
1480258055.4,286046974.0,N,0.0,0.0
1480258075.3,286046973.9,N,0.0,0.0
1480258095.1,286046971.5,N,0.0,0.0
1480258096.0,286046971.5,N,0.0,0.0
1480258115.8,286046972.4,N,0.0,0.0
1480258135.7,286046969.6,N,0.0,0.0
1480258155.5,286046970.1,N,0.0,0.0
1480258175.3,286046970.2,N,0.0,0.0
1480258195.2,286046970.6,N,0.0,0.0
1480258215.0,286046970.3,N,0.0,0.0
1480258215.9,286046970.3,N,0.0,0.0
1480258235.8,286046970.7,N,0.0,0.0
1480258255.6,286046968.9,N,0.0,0.0
1480258275.4,286046968.9,N,0.0,0.0
1480258295.3,286046969.1,N,0.0,0.0
1480258315.1,286046968.5,N,0.0,0.0
1480258335.9,286046968.5,N,0.0,0.0
1480258355.7,286046968.0,N,0.0,0.0
1480258375.5,286046967.7,N,0.0,0.0
1480258395.4,286046968.6,N,0.0,0.0
1480258415.2,286046968.9,N,0.0,0.0
1480258435.1,286046968.9,N,0.0,0.0
1480258436.0,286046968.9,N,0.0,0.0
1480258455.8,286046969.0,N,0.0,0.0
1480258475.6,286046968.8,N,0.0,0.0
1480258495.5,286046966.1,N,0.0,0.0
1480258515.3,286046968.9,N,0.0,0.0
1480258535.1,286046966.1,N,0.0,0.0
1480258555.9,286046966.1,N,0.0,0.0
1480258575.7,286046966.5,N,0.0,0.0
1480258595.6,286046966.3,N,0.0,0.0
1480258615.4,286046966.5,N,0.0,0.0
1480258635.2,286046967.1,N,0.0,0.0
1480258655.1,286046965.1,N,0.0,0.0
1480258656.0,286046965.1,N,0.0,0.0
1480258675.8,286046965.5,N,0.0,0.0
1480258695.7,286046963.0,N,0.0,0.0
1480258715.5,286046963.5,N,0.0,0.0
1480258735.3,286046963.6,N,0.0,0.0
1480258755.2,286046963.1,N,0.0,0.0
1480258775.0,286046963.5,N,0.0,0.0
1480258775.9,286046963.5,N,0.0,0.0
1480258795.7,286046963.1,N,0.0,0.0
